Regional Weather Roundup
Issued by NWS Upton, NY

Current Version | Previous Version | Text Only | Print | Product List | Glossary On
Versions: 1 2 3 4 5 6 7 8 9 10 11 12 13 14 15 16 17 18 19 20 21 22 23 24 25 26 27 28 29 30 31 32 33 34 35 36 37 38 39 40 41 42 43 44 45 46 47 48 49 50
173
ASUS41 KOKX 240104
RWROKX

REGIONAL WEATHER ROUNDUP
NATIONAL WEATHER SERVICE NEW YORK NY
900 PM EDT SAT JUL 23 2016

NOTE: "FAIR" INDICATES FEW OR NO CLOUDS BELOW 12,000 FEET WITH NO
SIGNIFICANT WEATHER AND/OR OBSTRUCTIONS TO VISIBILITY.

NYZ071-072-176-178-NJZ106-104-240200-
NEW YORK CITY METRO AREA

CITY           SKY/WX    TMP DP  RH WIND       PRES   REMARKS
Central Park   CLEAR     90  52  27 VRB3      29.87R
LaGuardia APRT PTCLDY    90  55  30 NW9       29.83R
Kennedy INTL   MOCLDY    93  56  28 NW13      29.84R HX  91
Newark/Liberty PTCLDY    91  59  33 NW8       29.84R HX  90
BRNX BOT. GARD   N/A     88  52  29 CALM      29.86R
Wall St Helipt PTCLDY    91  55  29 CALM      29.84R
Teterboro      CLEAR     90  49  24 N7        29.83R
$$

NYZ177-179-078>081-240200-
LONG ISLAND NEW YORK

CITY           SKY/WX    TMP DP  RH WIND       PRES   REMARKS
FARMINGDALE    PTCLDY    90  55  30 N7        29.84R
ISLIP          PTCLDY    86  57  37 NW8       29.83R
SHIRLEY        PTCLDY    80  66  62 CALM      29.84R
RIVERHEAD      NOT AVBL
WESTHAMPTON    MOCLDY    77  66  68 CALM      29.85R
SOUTHAMPTON      N/A     79  68  69 W3        29.79R
BRIDGEHAMPTON    N/A     77  66  69 CALM      29.82R
EAST HAMPTON   FAIR      77  66  68 W3        29.82R
MONTAUK POINT    N/A     78  67  68 CALM      29.83R
$$

NYZ052-065-067-240200-
HUDSON VALLEY

CITY           SKY/WX    TMP DP  RH WIND       PRES   REMARKS
WHITE PLAINS   PTCLDY    84  55  36 NW14      29.86R
NEWBURGH       CLEAR     81  59  47 NW12      29.89R
MONTGOMERY     CLEAR     80  59  48 NW5       29.88R
POUGHKEEPSIE   CLEAR     84  58  40 N12       29.86R
ALBANY         PTCLDY    68  64  87 CALM      29.90F
$$

NJZ001-105-106-008-010-013-015-019>022-104-240200-
NEW JERSEY

CITY           SKY/WX    TMP DP  RH WIND       PRES   REMARKS
NEWARK/LIBERTY PTCLDY    91  59  33 NW8       29.84R HX  90
TETERBORO      CLEAR     90  49  24 N7        29.83R
CALDWELL       CLEAR     87  54  32 CALM      29.86R
MORRISTOWN     PTCLDY    77  66  69 N3        29.87R
SOMERVILLE     PTCLDY    76  66  71 SW3       29.84R
SUSSEX         CLEAR     83  57  41 VRB3      29.91R
ANDOVER          N/A     77  60  55 CALM      29.90R
TRENTON        CLEAR     83  66  56 W5        29.86R
MILLVILLE      CLOUDY    77  74  90 CALM      29.89S
ATLANTIC CITY  CLOUDY    76  70  82 S5        29.89R
WRIGHTSTOWN    PTCLDY    75  71  85 SW7       29.85R
TOMS RIVER     PTCLDY    75  70  84 SW5       29.88S
BELMAR         CLEAR     81  67  62 W5        29.87R
$$

PAZ047>061-062-071-240200-
EASTERN PENNSYLVANIA

CITY           SKY/WX    TMP DP  RH WIND       PRES   REMARKS
PHILADELPHIA   PTCLDY    83  70  64 SW6       29.88R
ALLENTOWN      PTCLDY    84  61  45 N5        29.87R
SCRANTON       CLEAR     85  54  34 N12       29.92R
$$

CTZ002-004>006-009-010-012-RIZ004-006-007-MAZ004-011-015-240200-
SOUTHERN NEW ENGLAND
 IN CT

CITY           SKY/WX    TMP DP  RH WIND       PRES   REMARKS
BRADLEY INTL   MOCLDY    82  58  43 N12G21    29.83R
HARTFORD       CLEAR     87  58  37 N13G24    29.82R
DANBURY        CLEAR     84  56  38 N6        29.88R
WTRBRY/OXFORD  PTCLDY    81  55  41 N12G18    29.89R
BRIDGEPORT     PTCLDY    88  56  33 N7        29.83R
MERIDEN        CLEAR     86  57  37 NW8       29.83R
NEW HAVEN      CLEAR     86  57  37 NW8       29.83R
CHESTER        FAIR      84  57  39 NW7G14    29.84S
GROTON         PTCLDY    84  61  45 NW7       29.81R
WILLIMANTIC    NOT AVBL

 IN RI

CITY           SKY/WX    TMP DP  RH WIND       PRES   REMARKS
PROVIDENCE     CLOUDY    80  57  45 N14G22    29.81R
BLOCK ISLAND   PTCLDY    74  65  73 W10       29.82R
WESTERLY       CLEAR     82  61  48 W3        29.81R

 IN MA

CITY           SKY/WX    TMP DP  RH WIND       PRES   REMARKS
BOSTON         CLOUDY    74  58  57 NW13      29.81S
WORCESTER      PTCLDY    73  55  53 NW14G23   29.86S
WESTFIELD      PTCLDY    76  57  51 NE7       29.85R
PROVINCETOWN   CLOUDY    66  64  93 N13       29.81R
NANTUCKET      CLEAR     73  65  75 W13       29.77R
$$

ANZ330-335-338-340-345-350-353-355-240200-
COASTAL MARINE OBSERVATIONS


STATION/POSITION TIME  SKY/WX   TEMP    WIND        PRES    VSBY  WAVE
                                AIR SEA DIR/SP/G                  HT/PER
                 (UTC)          (F)     (DEG/KT/KT) (MB)    (MI)  (FT/S)
NY HARB ENTRANCE 2350            82 76  220/  8/  8 1009.6          2/ 6
20S FIRE ISLAND  2350            78 76  220/ 16/ 17 1009.3          3/ 7
GREAT SOUTH BAY  0000            82 81  230/ 12/ 14   N/A
23 SSW MONTAUK P 2350            76 71  230/ 12/ 14 1009.4          4/ 7
15 E BARNEGAT LI 0022               75                N/A           4/ 5
HUDSON CANYON    NOT AVBL
KINGS POINT      0000               75                N/A
EXECUTION ROCKS  0000            83     310/  8/ 10   N/A
CENTRAL LI SOUND 0000            79 74  260/  8/ 10   N/A           1
EASTERN LI SOUND 0000            74 68  270/  8/ 10   N/A
ROBBINS REEF     0000                   280/ 11/ 13 1009.1
$$


>>>>>>>>>>>>>>>>>>>>>>>>>>>> KEY <<<<<<<<<<<<<<<<<<<<<<<<<<<
>                                                          <
>     SKY/WX - SKY CONDITION/PRESENT WEATHER               <
>     TMP    - TEMPERATURE IN FAHRENHEIT                   <
>     DP     - DEWPOINT IN FAHRENHEIT                      <
>     RH     - RELATIVE HUMIDITY IN PERCENT                <
>     WIND   - DIRECTION AND SPEED IN MPH                  <
>     PRES   - MEAN SEA LEVEL PRESSURE IN INCHES OF HG     <
>     WCI    - WIND CHILL INDEX                            <
>     VSB    - VISIBILITY IN MILES                         <
>     HX     - HEAT INDEX                                  <
>     TC     - TEMPERATURE IN CELSIUS                      <
>     VRB    - VARIABLE WIND DIRECTION                     <
>                                                          <
>>>>>>>>>>>>>>>>>>>>>>>>>>>> KEY <<<<<<<<<<<<<<<<<<<<<<<<<<<






USA.gov is the U.S. government's official web portal to all federal, state and local government web resources and services.